Voltar ao catálogo

STARLINK-31779

AtivoComunicaçõesVLEO
NORAD 59744·PAYLOAD·🇺🇸 United States

Lançado May 13, 2024 de Cape Canaveral Space Force Station

Loading…

Próximas Passagens (próximas 24 horas)

TLE

AtualizadoSource: CelesTrak SupGP

Época: Sep 15, 2026, 03:19 UTC

1 59744C 24090Q   26258.13868056 -.00021556  00000+0 -78087-3 0  2585
2 59744  42.9997 193.3829 0001122 273.4208 181.3362 15.27584393    10

Acompanhe STARLINK-31779 em tempo real com AllMySat

Download on the App Store